Weather in Tsilna

Russia / Ulyanovsk Oblast     54°35′30″N   48°09′08″E
temp.,
°C
wind,
m/s
gust,
m/s
humid.,
%
clouds,
%
prec.,
mm/h
press.,
hPa
HPBL,
m
11 may, tue
tue1101:00+14nne3571100 0.0 102086
04:00+14nne477499 0.0 1022120
07:00+14ene247283 0.0 1023102
10:00+17ene3561100 0.0 1024240
13:00+21ese3449100 0.0 1025465
16:00+21ese3548100 0.0 1025684
19:00+19e2357100 0.0 102664
22:00+16ene22676 0.0 102711
12 may, wed
wed1201:00+15ese226962 0.0 102721
04:00+14ene22725 0.0 102612
07:00+14ene357338 0.0 1027114
10:00+18ese3662100 0.0 1027324
13:00+19sse475399 0.0 1027526
16:00+22se48455 0.0 10261243
19:00+19sse375054 0.0 1026217
22:00+16ese225852 0.0 102617
13 may, thu
thu1301:00+14e116891 0.0 102611
04:00+13e227557 0.0 102635
07:00+14e39727 0.0 1026200
10:00+18ese59547 0.0 1025496
13:00+20se684871 0.0 1025839
16:00+16sse1486100 1.6 1025131
19:00+17ene4977100 0.9 1023187
22:00+15e358193 0.9 102361
14 may, fri
fri1401:00+14ese338068 0.1 102342
04:00+13ese33845 0.1 102330
07:00+14ese397622 0.0 1023184
10:00+19sse58515 0.0 1022424
13:00+24s584383 0.0 1021941
16:00+25ssw6942100 0.0 10211223
19:00+22ssw355495 0.0 102195
22:00+18s336126 0.0 102137
15 may, sat
sat1501:00+16s34590 0.0 102153
04:00+15sse34609 0.0 102143
07:00+16sse36635 0.0 1021145
10:00+22sse47457 0.0 1020361
13:00+26s683293 0.0 1020974
16:00+26s693228 0.0 10191391
19:00
22:00+19sse464988 0.0 101867